FW5704 Weather Reports


Display with metric or nautical units.
time (UTC)temp
F
wind
direction
speed
MPH
gust
MPH
rain 1hr
in
rain 24hr
in
rain mn
in
humidity
%
barometer
mb
20260502164036 57 0 0.0 2.0 0.00 0.00 0.00 65 1012.9
20260502163533 57 0 0.0 4.0 0.00 0.00 0.00 69 1013.1
20260502163056 57 0 0.0 4.0 0.00 0.00 0.00 67 1013.2
20260502162533 57 265 1.0 6.0 0.00 0.00 0.00 68 1013.1
20260502162033 58 0 1.0 7.0 0.00 0.00 0.00 67 1013.2
20260502161547 59 254 1.0 7.0 0.00 0.00 0.00 64 1013.1
20260502161033 59 254 1.0 7.0 0.00 0.00 0.00 66 1013.1
20260502160534 59 178 1.0 4.0 0.00 0.00 0.00 65 1013.0
20260502152033 58 250 1.0 4.0 0.00 0.00 0.00 68 1013.0
20260502151603 57 269 1.0 3.0 0.00 0.00 0.00 66 1013.0
20260502151036 57 0 0.0 6.0 0.00 0.00 0.00 70 1013.0
20260502150535 57 263 1.0 6.0 0.00 0.00 0.00 68 1013.1
20260502150104 57 263 1.0 6.0 0.00 0.00 0.00 67 1013.1
20260502130534 51 0 0.0 3.0 0.00 0.00 0.00 83 1013.1
20260502123535 50 0 0.0 0.0 0.00 0.00 0.00 86 1012.7
20260502123059 50 0 0.0 0.0 0.00 0.00 0.00 86 1012.5
20260502122535 50 0 0.0 0.0 0.00 0.00 0.00 86 1012.8
20260502122037 49 0 0.0 0.0 0.00 0.00 0.00 87 1012.8
20260502121547 49 0 0.0 0.0 0.00 0.00 0.00 87 1012.9
20260502121039 49 0 0.0 0.0 0.00 0.00 0.00 86 1013.1
20260502120533 49 0 0.0 0.0 0.00 0.00 0.00 86 1013.2
20260502115536 49 0 0.0 0.0 0.00 0.00 0.00 86 1012.6
20260502115033 49 0 0.0 0.0 0.00 0.00 0.00 87 1012.8
20260502114549 49 0 0.0 0.0 0.00 0.00 0.00 88 1012.9
20260502114033 49 0 0.0 0.0 0.00 0.00 0.00 87 1012.7
20260502113533 49 0 0.0 0.0 0.00 0.00 0.00 87 1012.8
20260502113049 49 0 0.0 0.0 0.00 0.00 0.00 87 1012.9
20260502112532 49 0 0.0 0.0 0.00 0.00 0.00 86 1012.5
20260502112033 49 0 0.0 0.0 0.00 0.00 0.00 86 1012.1
20260502111546 49 0 0.0 0.0 0.00 0.00 0.00 86 1012.3
20260502111033 49 0 0.0 0.0 0.00 0.00 0.00 86 1012.5
20260502110533 49 0 0.0 0.0 0.00 0.00 0.00 86 1012.3
20260502110055 49 0 0.0 0.0 0.00 0.00 0.00 85 1012.4
20260502105534 49 0 0.0 0.0 0.00 0.00 0.00 85 1012.3
20260502105033 49 0 0.0 0.0 0.00 0.00 0.00 85 1012.2
20260502104551 49 0 0.0 0.0 0.00 0.00 0.00 84 1012.0
20260502104033 49 0 0.0 0.0 0.00 0.00 0.00 84 1011.7
20260502103533 49 0 0.0 0.0 0.00 0.00 0.00 84 1011.9
20260502103055 49 0 0.0 0.0 0.00 0.00 0.00 84 1011.9
20260502102533 49 0 0.0 0.0 0.00 0.00 0.00 84 1012.0
20260502102034 50 0 0.0 0.0 0.00 0.00 0.00 84 1012.0
20260502101606 50 0 0.0 0.0 0.00 0.00 0.00 83 1012.3
20260502101033 50 0 0.0 0.0 0.00 0.00 0.00 83 1012.3
20260502100533 50 0 0.0 0.0 0.00 0.00 0.00 83 1012.1
20260502100107 50 0 0.0 0.0 0.00 0.00 0.00 83 1012.0
20260502091033 50 0 0.0 0.0 0.00 0.00 0.00 82 1011.8
20260502090534 50 0 0.0 0.0 0.00 0.00 0.00 82 1011.9
20260502071033 51 0 0.0 0.0 0.00 0.01 0.00 83 1012.5
20260502070534 51 0 0.0 0.0 0.00 0.01 0.00 82 1012.5
20260502070051 51 0 0.0 0.0 0.00 0.01 0.00 82 1012.4
20260502065533 51 0 0.0 0.0 0.00 0.01 0.00 82 1012.6
20260502065033 51 0 0.0 0.0 0.00 0.01 0.00 82 1012.8
20260502064552 51 0 0.0 0.0 0.00 0.01 0.00 81 1012.8
20260502064033 51 0 0.0 0.0 0.00 0.01 0.00 82 1012.9
20260502063533 51 0 0.0 0.0 0.00 0.01 0.00 81 1013.0
20260502063042 50 0 0.0 0.0 0.00 0.01 0.00 80 1012.8
20260502062536 50 0 0.0 0.0 0.00 0.01 0.00 81 1012.9
20260502062036 50 0 0.0 0.0 0.00 0.01 0.00 80 1012.9
20260502061549 51 0 0.0 0.0 0.00 0.01 0.00 81 1012.9
20260502061033 51 0 0.0 0.0 0.00 0.01 0.00 82 1012.8
20260502060534 51 0 0.0 0.0 0.00 0.01 0.00 82 1012.8
20260502060053 50 0 0.0 0.0 0.00 0.01 0.00 82 1012.8
20260502055534 50 0 0.0 0.0 0.00 0.01 0.00 82 1013.0
20260502055033 50 0 0.0 0.0 0.00 0.01 0.00 81 1013.0
20260502054545 50 0 0.0 0.0 0.00 0.01 0.00 82 1013.1
20260502054033 50 0 0.0 0.0 0.00 0.01 0.00 82 1013.1
20260502053533 50 0 0.0 0.0 0.00 0.01 0.00 82 1013.1
20260502053058 50 0 0.0 0.0 0.00 0.01 0.00 82 1013.2
20260502052533 50 0 0.0 0.0 0.00 0.01 0.00 82 1013.2
20260502052034 50 0 0.0 0.0 0.00 0.01 0.00 81 1013.2
20260502051542 51 0 0.0 0.0 0.00 0.01 0.00 82 1013.2
20260502051033 51 0 0.0 0.0 0.00 0.01 0.00 82 1013.3
20260502050534 51 0 0.0 0.0 0.00 0.01 0.00 81 1013.3
20260502050047 51 0 0.0 0.0 0.00 0.01 0.00 81 1013.2
20260502045533 51 0 0.0 0.0 0.00 0.01 0.00 81 1013.4
20260502045034 51 0 0.0 0.0 0.00 0.01 0.00 80 1013.4
20260502044545 51 0 0.0 0.0 0.00 0.01 0.00 80 1013.6
20260502044033 51 0 0.0 0.0 0.00 0.01 0.00 80 1013.8
20260502043533 51 0 0.0 0.0 0.00 0.01 0.00 79 1013.7
20260502043044 51 0 0.0 0.0 0.00 0.01 0.00 78 1013.7
20260502042536 51 0 0.0 0.0 0.00 0.01 0.00 80 1013.7
20260502042033 51 0 0.0 0.0 0.00 0.01 0.00 80 1013.7
20260502041543 51 0 0.0 0.0 0.00 0.01 0.00 79 1013.7
20260502041032 52 0 0.0 0.0 0.00 0.01 0.00 80 1013.7
20260502040533 51 0 0.0 0.0 0.00 0.01 0.00 80 1013.7
20260502040051 51 0 0.0 0.0 0.00 0.01 0.00 80 1013.6
20260502035533 51 0 0.0 0.0 0.00 0.01 0.01 79 1013.6
20260502035035 51 0 0.0 0.0 0.00 0.01 0.01 79 1013.5
20260502034545 51 0 0.0 0.0 0.00 0.01 0.01 80 1013.7
20260502034034 52 0 0.0 0.0 0.00 0.01 0.01 79 1013.7
20260502033535 52 0 0.0 0.0 0.00 0.01 0.01 79 1013.6
20260502033050 52 0 0.0 0.0 0.00 0.01 0.01 79 1013.7
20260502032533 52 0 0.0 0.0 0.00 0.01 0.01 79 1013.9
20260502032033 52 0 0.0 0.0 0.00 0.01 0.01 79 1013.8
20260502031544 52 0 0.0 0.0 0.00 0.01 0.01 79 1013.9
20260502031033 52 0 0.0 0.0 0.00 0.01 0.01 78 1014.0
20260502030532 52 0 0.0 0.0 0.00 0.01 0.01 78 1013.9
20260502030053 52 0 0.0 0.0 0.00 0.01 0.01 77 1013.9
20260502025537 52 0 0.0 0.0 0.00 0.01 0.01 78 1013.9
20260502025033 52 0 0.0 0.0 0.00 0.01 0.01 79 1014.0
20260502024546 53 0 0.0 0.0 0.00 0.01 0.01 79 1014.0
20260502024035 53 0 0.0 0.0 0.00 0.01 0.01 78 1014.2
20260502023533 53 0 0.0 0.0 0.00 0.01 0.01 77 1014.1
20260502023105 53 0 0.0 0.0 0.00 0.01 0.01 78 1014.2
20260502022534 53 0 0.0 0.0 0.00 0.01 0.01 78 1014.3
20260502022033 53 0 0.0 0.0 0.00 0.01 0.01 76 1014.3
20260502021546 53 0 0.0 0.0 0.00 0.01 0.01 74 1014.2
20260502021033 53 0 0.0 0.0 0.00 0.01 0.01 75 1014.2
20260502020533 53 0 0.0 0.0 0.00 0.01 0.01 76 1014.1
20260502020045 53 0 0.0 0.0 0.00 0.01 0.01 76 1014.0
20260502015533 53 0 0.0 0.0 0.00 0.01 0.01 77 1013.9
20260502015033 53 0 0.0 0.0 0.00 0.01 0.01 76 1013.8
20260502014546 53 0 0.0 0.0 0.00 0.01 0.01 76 1013.7
20260502014034 54 0 0.0 0.0 0.00 0.01 0.01 77 1013.7
20260502013534 54 0 0.0 0.0 0.00 0.01 0.01 76 1013.7
20260502013047 54 0 0.0 0.0 0.00 0.01 0.01 76 1013.4
20260502012541 54 0 0.0 0.0 0.00 0.01 0.01 76 1013.5
20260502012033 54 0 0.0 1.0 0.00 0.01 0.01 76 1013.5
20260502011551 54 0 0.0 1.0 0.00 0.01 0.01 74 1013.6
20260502011034 54 264 0.0 0.0 0.00 0.01 0.01 74 1013.4
20260502010536 54 0 0.0 0.0 0.00 0.01 0.01 74 1013.3
20260502010048 55 0 0.0 0.0 0.00 0.01 0.01 73 1013.3
20260502005533 55 0 0.0 0.0 0.00 0.01 0.01 73 1013.3
20260502005033 55 0 0.0 0.0 0.00 0.01 0.01 73 1013.2
20260502004602 55 0 0.0 0.0 0.00 0.01 0.01 73 1013.0
20260502004034 56 0 0.0 0.0 0.00 0.01 0.01 73 1013.0
20260502003532 56 0 0.0 0.0 0.00 0.01 0.01 73 1013.0
20260502003045 56 0 0.0 0.0 0.00 0.01 0.01 71 1013.1
20260502002532 56 0 0.0 0.0 0.00 0.01 0.01 70 1013.0
20260502002033 57 0 0.0 0.0 0.00 0.01 0.01 70 1013.0
20260502001545 57 0 0.0 0.0 0.00 0.01 0.01 71 1012.9
20260502001034 57 0 0.0 0.0 0.00 0.01 0.01 71 1012.9
20260502000533 57 0 0.0 0.0 0.00 0.01 0.01 68 1012.9
20260502000054 57 0 0.0 0.0 0.00 0.01 0.01 66 1012.8
20260501235536 58 0 0.0 0.0 0.00 0.01 0.01 67 1012.8
20260501235033 58 0 0.0 0.0 0.00 0.01 0.01 67 1012.7
20260501234549 58 0 0.0 0.0 0.00 0.01 0.01 67 1012.8
20260501234035 59 0 0.0 0.0 0.00 0.01 0.01 62 1012.5
20260501233533 59 0 0.0 0.0 0.00 0.01 0.01 60 1012.4
20260501233046 59 0 0.0 0.0 0.00 0.01 0.01 59 1012.4
20260501232532 59 0 0.0 0.0 0.00 0.01 0.01 60 1012.2
20260501232032 59 0 0.0 0.0 0.00 0.01 0.01 59 1012.1
20260501231544 60 0 0.0 0.0 0.00 0.01 0.01 60 1012.1
20260501231033 60 0 0.0 2.0 0.00 0.01 0.01 58 1012.0
20260501230538 60 0 0.0 4.0 0.00 0.01 0.01 56 1012.0
20260501230047 60 0 1.0 4.0 0.00 0.01 0.01 56 1012.0
20260501225534 60 260 2.0 4.0 0.00 0.01 0.01 55 1012.2
20260501225035 60 0 1.0 6.0 0.00 0.01 0.01 55 1012.1
20260501224549 61 252 1.0 6.0 0.00 0.01 0.01 54 1012.0
20260501224033 61 253 1.0 3.0 0.00 0.01 0.01 54 1011.8
20260501223533 61 259 1.0 4.0 0.00 0.01 0.01 54 1011.9
20260501223106 61 252 1.0 7.0 0.00 0.01 0.01 55 1012.0
20260501222533 61 261 1.0 7.0 0.00 0.01 0.01 53 1012.0
20260501222034 61 260 2.0 10.0 0.00 0.01 0.01 52 1012.0
20260501221546 61 256 1.0 10.0 0.00 0.01 0.01 52 1012.2
20260501221033 61 259 2.0 10.0 0.00 0.01 0.01 53 1012.2
20260501220533 61 0 2.0 10.0 0.00 0.01 0.01 53 1012.2
20260501220045 61 252 5.0 10.0 0.00 0.01 0.01 52 1012.4
20260501215534 61 265 2.0 7.0 0.00 0.01 0.01 54 1012.4
20260501215034 61 260 1.0 8.0 0.00 0.01 0.01 55 1012.6
20260501214545 62 256 3.0 9.0 0.00 0.01 0.01 53 1012.5
20260501214033 62 245 3.0 9.0 0.00 0.01 0.01 54 1012.6
20260501213536 62 255 2.0 9.0 0.00 0.01 0.01 54 1012.8
20260501213045 62 269 3.0 8.0 0.00 0.01 0.01 53 1012.7
20260501212535 62 258 3.0 10.0 0.00 0.01 0.01 53 1012.8
20260501212033 62 258 3.0 10.0 0.00 0.01 0.01 53 1012.8
20260501211542 62 257 2.0 10.0 0.00 0.01 0.01 52 1012.6
20260501211033 62 248 5.0 10.0 0.00 0.01 0.01 51 1012.7
20260501210533 63 252 3.0 11.0 0.00 0.01 0.01 52 1012.5
20260501210050 63 235 2.0 11.0 0.00 0.01 0.01 49 1012.6
20260501205537 63 242 3.0 9.0 0.00 0.01 0.01 51 1012.5
20260501205032 63 0 1.0 9.0 0.00 0.01 0.01 54 1012.5
20260501204545 63 251 2.0 9.0 0.00 0.01 0.01 52 1012.5
20260501204033 63 259 2.0 9.0 0.00 0.01 0.01 51 1012.6
20260501203532 63 253 2.0 7.0 0.00 0.01 0.01 52 1012.7
20260501203056 63 257 2.0 9.0 0.00 0.01 0.01 52 1012.9
20260501202549 63 258 2.0 9.0 0.00 0.01 0.01 54 1013.0
20260501202033 63 236 2.0 9.0 0.00 0.01 0.01 54 1013.0
20260501201548 63 273 3.0 8.0 0.00 0.01 0.01 54 1013.0
20260501201033 63 259 2.0 8.0 0.00 0.01 0.01 55 1013.0
20260501200537 63 254 2.0 8.0 0.00 0.01 0.01 53 1013.0
20260501200047 63 255 3.0 9.0 0.00 0.01 0.01 53 1013.1
20260501195533 63 257 4.0 9.0 0.00 0.02 0.01 53 1013.2
20260501195033 63 250 3.0 9.0 0.00 0.02 0.01 51 1013.2
20260501194545 63 246 3.0 9.0 0.00 0.02 0.01 53 1013.4
20260501194033 63 246 4.0 11.0 0.00 0.02 0.01 51 1013.6
20260501193533 63 265 2.0 11.0 0.00 0.02 0.01 50 1013.5
20260501193045 63 262 3.0 10.0 0.00 0.02 0.01 49 1013.4
20260501192532 63 259 1.0 7.0 0.00 0.02 0.01 49 1013.4
20260501192032 63 263 2.0 8.0 0.00 0.02 0.01 49 1013.3
20260501191542 63 271 3.0 9.0 0.00 0.02 0.01 47 1013.4
20260501191033 63 249 3.0 10.0 0.00 0.02 0.01 45 1013.5
20260501190533 63 242 3.0 10.0 0.00 0.02 0.01 46 1013.6
20260501190051 63 249 3.0 10.0 0.00 0.02 0.01 46 1013.6
20260501185533 63 265 4.0 9.0 0.00 0.02 0.01 47 1013.6
20260501185034 63 243 3.0 8.0 0.00 0.02 0.01 49 1013.6
20260501184604 63 263 2.0 8.0 0.00 0.02 0.01 47 1013.7
20260501184033 63 252 2.0 12.0 0.00 0.02 0.01 50 1013.6
20260501183533 63 248 1.0 12.0 0.00 0.02 0.01 50 1013.6
20260501183053 63 255 2.0 7.0 0.00 0.02 0.01 49 1013.9
20260501182532 62 252 2.0 9.0 0.00 0.02 0.01 51 1013.8
20260501182033 62 258 2.0 11.0 0.00 0.02 0.01 52 1013.8
20260501181545 63 244 4.0 11.0 0.00 0.02 0.01 49 1013.9
20260501181032 63 241 3.0 8.0 0.00 0.02 0.01 50 1013.9
20260501180532 63 261 4.0 8.0 0.00 0.02 0.01 49 1013.9
20260501180044 63 257 3.0 11.0 0.00 0.02 0.01 49 1013.9
20260501175533 63 264 4.0 11.0 0.00 0.02 0.01 49 1013.8
20260501175033 63 264 3.0 11.0 0.00 0.02 0.01 50 1014.0
20260501174552 63 261 3.0 8.0 0.00 0.02 0.01 53 1014.0
20260501174033 62 261 2.0 7.0 0.00 0.02 0.01 54 1014.0
20260501173533 62 244 2.0 10.0 0.00 0.02 0.01 53 1013.8
20260501173108 62 245 2.0 10.0 0.00 0.02 0.01 52 1013.9
20260501172534 62 265 2.0 7.0 0.00 0.02 0.01 52 1013.8
20260501172034 62 257 3.0 7.0 0.00 0.02 0.01 51 1013.9
20260501171555 62 261 1.0 7.0 0.00 0.02 0.01 53 1014.0
20260501171032 62 254 2.0 8.0 0.00 0.02 0.01 50 1014.1
20260501170535 62 232 3.0 8.0 0.00 0.02 0.01 50 1014.2